Location: Unspecified
(33.8426°N, 132.7625°E)
Time: 10:30:46
(UTC+09:00)

N. Korean satellite - Visible Passes

Search period start: 19 December 2018 00:00
Search period end: 29 December 2018 00:00
Orbit: 457 x 511 km, 97.2° (Epoch: 18 December)

Date Brightness Start Highest point End Pass type
(mag) Time Alt. Az. Time Alt. Az. Time Alt. Az.
20 Dec 6.6 06:21:32 10° NNE 06:25:11 86° E 06:28:52 10° S visible
20 Dec 9.3 18:27:47 10° SW 18:30:21 20° W 18:32:58 10° NW visible
21 Dec 8.3 05:57:11 10° NNE 06:00:36 36° E 06:04:01 10° SSE visible
21 Dec 7.7 18:02:24 10° S 18:05:42 45° W 18:09:01 10° NNW visible
22 Dec 9.7 05:33:25 10° NE 05:35:56 17° E 05:38:27 10° SE visible
22 Dec 6.4 17:37:43 10° SSE 17:41:06 71° ENE 17:44:32 10° N visible
23 Dec 6.9 06:41:17 10° N 06:44:48 47° WNW 06:48:22 10° SSW visible
23 Dec 10.1 18:49:17 10° WSW 18:50:07 11° W 18:50:56 10° W visible
24 Dec 6.9 06:16:36 10° NNE 06:20:16 74° ESE 06:23:58 10° S visible
24 Dec 9.1 18:22:35 10° SSW 18:25:22 23° W 18:28:12 10° NW visible
25 Dec 8.6 05:52:19 10° NNE 05:55:40 32° E 05:59:00 10° SSE visible
25 Dec 7.3 17:57:22 10° S 18:00:42 54° W 18:04:07 10° NNW visible
26 Dec 9.9 05:28:44 10° ENE 05:30:58 15° E 05:33:13 10° SE visible
26 Dec 6.5 17:32:45 10° SSE 17:36:07 59° ENE 17:39:34 10° N visible
27 Dec 6.7 06:36:15 10° N 06:39:53 56° WNW 06:43:31 10° SSW visible
27 Dec 9.9 18:43:31 10° WSW 18:45:05 13° W 18:46:39 10° WNW visible
28 Dec 7.2 06:11:38 10° NNE 06:15:19 62° E 06:19:00 10° S visible
28 Dec 8.8 18:17:22 10° SSW 18:20:20 27° W 18:23:21 10° NW visible
